Regional Weather Roundup
Issued by NWS Glasgow, MT

Home | Current Version | Previous Version | Text Only | Print | Product List | Glossary On
Versions: 1 2 3 4 5 6 7 8 9 10 11 12 13 14 15 16 17 18 19 20 21 22 23 24 25 26 27 28 29 30 31 32 33 34 35 36 37 38 39 40 41 42 43 44 45 46 47 48 49 50
000
ASUS45 KGGW 011015
RWRGGW
HOURLY REGIONAL WEATHER ROUNDUP FOR NORTHEAST MONTANA
NATIONAL WEATHER SERVICE GLASGOW MONTANA
400 AM MDT TUE SEP 01 2015

NOTE: "FAIR" INDICATES FEW OR NO CLOUDS BELOW 12,000 FEET WITH NO
SIGNIFICANT WEATHER AND/OR OBSTRUCTIONS TO VISISBILITY.

NORTHEAST MONTANA


CITY           SKY/WX    TMP DP  RH WIND       PRES   REMARKS
GLASGOW        CLEAR     53  44  71 E9        29.80S
PLENTYWOOD       N/A     56  38  50 E3          N/A
WOLF POINT     CLEAR     47  41  80 N3        29.81S
JORDAN           N/A     45  34  65 W3        29.82F
WINNETT          N/A     44  42  93 S1          N/A
SIDNEY         CLEAR     50  41  71 CALM      29.83S
GLENDIVE       CLEAR     52  37  58 N3        29.85S
MALTA            N/A     49  43  80 SE1         N/A
SCOBEY           N/A     48  37  65 CALM      29.82F
OPHEIM           N/A     52  37  58 CALM      29.61R

FORT PECK REPORTS


CITY           SKY/WX    TMP DP  RH WIND       PRES   REMARKS
FORT PECK        N/A     61  46  57 E7          N/A
THE PINES        N/A     61  45  55 SW3         N/A

SOUTHEAST MONTANA


CITY           SKY/WX    TMP DP  RH WIND       PRES   REMARKS
BILLINGS       CLEAR     58  37  45 SW8       29.87S
MILES CITY     CLEAR     57  47  69 SE7       29.83S
BAKER          CLEAR     59  53  80 SE8       29.88S
LIVINGSTON     CLEAR     53  34  48 NW13G26   29.93R

CENTRAL MONTANA


CITY           SKY/WX    TMP DP  RH WIND       PRES   REMARKS
HAVRE          FAIR      50  40  68 CALM      29.76F
LEWISTOWN      FAIR      47  39  74 CALM      29.89R
GREAT FALLS    FAIR      62  39  42 S14       29.83F
CUT BANK       FAIR      57  36  45 SW10      29.79S
HELENA         FAIR      56  39  53 CALM      29.91S
BUTTE          FAIR      42  36  79 SE6       30.02R
BOZEMAN        FAIR      49  38  65 S6        29.95R

WESTERN MONTANA


CITY           SKY/WX    TMP DP  RH WIND       PRES   REMARKS
MISSOULA       FAIR      47  41  80 CALM      29.95R
KALISPELL      NOT AVBL

NORTH DAKOTA


CITY           SKY/WX    TMP DP  RH WIND       PRES   REMARKS
WILLISTON      CLEAR     50  44  80 CALM      29.83F
DICKINSON      CLEAR     55  47  74 S10       29.86S
MINOT          CLEAR     57  47  69 S3        29.83S
BISMARCK       CLEAR     54  51  90 E8        29.87F

SOUTHERN SASKATCHEWAN


CITY           SKY/WX    TMP DP  RH WIND       PRES   REMARKS
REGINA         PTCLDY    48  45  87 S9        29.76R
MOOSE JAW      MOCLDY    54  48  82 SW9       29.75
ESTEVAN        PTCLDY    50  41  71 SW7       29.82R
SWIFT CURRENT  CLEAR     54  39  58 S13       29.73S




USA.gov is the U.S. government's official web portal to all federal, state and local government web resources and services.